Preview of NWS' New Version of Forecast
This preview is not operational and should not be used for support decisions.

Regional Weather Roundup (RWR)

Issued by National Weather Service (NWS)

                            
000
ASUS43 KLSX 191857
RWRMO 

WEATHER SUMMARY FOR MISSOURI
NATIONAL WEATHER SERVICE SPRINGFIELD MO
100 PM CST TUE FEB 19 2019

NOTE: "FAIR" INDICATES FEW OR NO CLOUDS BELOW 12,000 FEET WITH NO
       SIGNIFICANT WEATHER AND/OR OBSTRUCTIONS TO VISIBILITY.
       CURRENT SKY AND/OR WEATHER CONDITIONS ARE NOT AVAILABLE FOR
       CHILLICOTHE AND FARMINGTON.

MOZ001>031-035>038-043-044-053-054-192000-
...NORTHERN AND WESTERN MISSOURI...
  
CITY           SKY/WX    TMP DP  RH WIND       PRES   REMARKS
KANSAS CTY INT CLOUDY    28  19  69 E17       30.31F WCI  16          
LEE'S SUMMIT   CLOUDY    29  20  69 E16       30.31F WCI  17          
ST JOSEPH      PTSUNNY   28  20  71 E15       30.33F WCI  16          
CHILLICOTHE      N/A     29  22  75 E10       30.39F WCI  20          
     
$$
MOZ066>068-077>081-088>096-101>105-192000-
...SOUTHWEST MISSOURI...
  
CITY           SKY/WX    TMP DP  RH WIND       PRES   REMARKS
SPRINGFIELD    CLOUDY    38  20  48 E13       30.21F WCI  30          
JOPLIN         CLOUDY    38  20  48 E16G24    30.19F WCI  29          
BRANSON        CLOUDY    34  21  60 E8G20     30.22F WCI  27          
               
$$
MOZ032>034-039>042-045>050-055>058-069>072-192000-
...CENTRAL MISSOURI...  
  
CITY           SKY/WX    TMP DP  RH WIND       PRES   REMARKS
COLUMBIA       NOT AVBL                                               
JEFFERSON CITY CLOUDY    33  21  61 E8        30.41F WCI  26          
ROLLA          CLOUDY    30  20  66 E15       30.35F WCI  19          
SEDALIA        MOSUNNY   30  21  69 E12       30.35F WCI  20          
WARRENSBURG    CLOUDY    30  21  69 NE16G22   30.35F WCI  19          
               
$$
MOZ051-052-059>065-192000-
...EAST CENTRAL MISSOURI...
  
CITY           SKY/WX    TMP DP  RH WIND       PRES   REMARKS
ST LOUIS INTL  CLOUDY    34  22  61 E13       30.45F WCI  25          
                   
$$
MOZ072>076-082>087-097>100-106>115-192000-
...SOUTH CENTRAL AND SOUTHEAST MISSOURI...
  
CITY           SKY/WX    TMP DP  RH WIND       PRES   REMARKS
CAPE GIRARDEAU FAIR      39  26  59 NE14      30.40F                  
POPLAR BLUFF   FAIR      39  28  64 E16G24    30.35F                  
WEST PLAINS    CLOUDY    36  23  59 NE12G23   30.28F WCI  28          
                                       
$$